Hot Springs, VA

6:57 PM EDT on August 24, 2016 (GMT -0400)
Ingalls

Weather History for KHSP - August, 2013

Change the Weather History Date:

Friday, August 2, 2013

  Actual Average Record
Temperature  
Mean Temperature 64 °F -  
Max Temperature 71 °F 74 °F 86 °F (2002)
Min Temperature 57 °F 59 °F 55 °F (2014)
Degree Days  
Heating Degree Days 1    
Growing Degree Days 14 (Base 50)    
Moisture  
Dew Point 57 °F    
Average Humidity 81    
Maximum Humidity 100    
Minimum Humidity 57    
Precipitation  
Precipitation 0.00 in - - ()
Sea Level Pressure  
Sea Level Pressure 30.16 in    
Wind  
Wind Speed 9 mph (West)    
Max Wind Speed 15 mph    
Max Gust Speed 18 mph    
Visibility 8 miles    
Events Fog    
Averages and records for this station are not official NWS values.
T = Trace of Precipitation, MM = Missing Value Source: NWS Daily Summary

Daily Weather History Graph

Daily Weather History Graph

Search for Another Location

Airport or City:

Trip Planner

Search our weather history database for the weather conditions in past years. The results will help you decide how hot, cold, wet, or windy it might be!

Date:

Astronomy

Aug. 02, 2013 Rise Set
Actual Time 6:23 AM EDT 8:27 PM EDT
Civil Twilight 5:54 AM EDT 8:56 PM EDT
Nautical Twilight 5:18 AM EDT 9:31 PM EDT
Astronomical Twilight 4:40 AM EDT 10:09 PM EDT
Moon 2:43 AM EDT (8/2) 5:22 PM EDT (8/2)
Length of Visible Light 15h 01m
Length of Day
14h 03m
Waning Crescent, 16% of the Moon is Illuminated
Aug 2
Waning Crescent
Aug 6
New
Aug 14
First Quarter
Aug 20
Full
Aug 28
Last Quarter

Hourly Weather History & Observations

Time (EDT) Temp. Dew Point Humidity Pressure Visibility Wind Dir Wind Speed Gust Speed Precip Events Conditions
12:15 AM 60.8 °F 60.8 °F 100% 30.12 in 10.0 mi WNW 6.9 mph - N/A   Clear
12:35 AM 60.8 °F 59.0 °F 94% 30.12 in 10.0 mi WNW 5.8 mph - N/A   Clear
12:55 AM 60.8 °F 60.8 °F 100% 30.13 in 10.0 mi WNW 4.6 mph - N/A   Clear
1:15 AM 60.8 °F 60.8 °F 100% 30.13 in 10.0 mi WNW 6.9 mph - N/A   Scattered Clouds
1:35 AM 60.8 °F 60.8 °F 100% 30.12 in 10.0 mi West 6.9 mph - N/A   Mostly Cloudy
1:55 AM 60.8 °F 60.8 °F 100% 30.11 in 3.0 mi West 5.8 mph - N/A   Mostly Cloudy
2:15 AM 59.0 °F 59.0 °F 100% 30.10 in 4.0 mi West 6.9 mph - N/A   Scattered Clouds
2:55 AM 59.0 °F 59.0 °F 100% 30.10 in 2.5 mi West 8.1 mph - N/A   Scattered Clouds
3:15 AM 60.8 °F 60.8 °F 100% 30.09 in 0.2 mi West 9.2 mph - N/A Fog Fog
3:35 AM 60.8 °F 60.8 °F 100% 30.09 in 0.2 mi West 10.4 mph - N/A Fog Fog
3:55 AM 59.0 °F 59.0 °F 100% 30.09 in 0.2 mi West 11.5 mph - N/A Fog Fog
4:15 AM 59.0 °F 59.0 °F 100% 30.10 in 0.2 mi West 12.7 mph 17.3 mph N/A Fog Fog
4:35 AM 59.0 °F 59.0 °F 100% 30.10 in 0.2 mi West 10.4 mph - N/A Fog Fog
4:39 AM 59.0 °F 59.0 °F 100% 30.10 in 0.2 mi West 10.4 mph - N/A Fog Fog
4:55 AM 57.2 °F 57.2 °F 100% 30.10 in 0.2 mi West 8.1 mph - N/A Fog Fog
5:15 AM 57.2 °F 57.2 °F 100% 30.11 in 4.0 mi West 10.4 mph - N/A   Scattered Clouds
5:35 AM 57.2 °F 57.2 °F 100% 30.12 in 7.0 mi West 9.2 mph - N/A   Clear
5:55 AM 57.2 °F 57.2 °F 100% 30.12 in 7.0 mi West 9.2 mph - N/A   Clear
6:15 AM 57.2 °F 57.2 °F 100% 30.13 in 5.0 mi West 9.2 mph - N/A   Clear
6:35 AM 57.2 °F 57.2 °F 100% 30.13 in 7.0 mi West 8.1 mph - N/A   Clear
6:55 AM 57.2 °F 57.2 °F 100% 30.14 in 7.0 mi West 9.2 mph - N/A   Clear
7:15 AM 57.2 °F 57.2 °F 100% 30.14 in 3.0 mi West 9.2 mph - N/A   Clear
7:35 AM 57.2 °F 57.2 °F 100% 30.14 in 4.0 mi West 11.5 mph - N/A   Clear
7:55 AM 57.2 °F 57.2 °F 100% 30.15 in 5.0 mi West 11.5 mph - N/A   Clear
8:15 AM 57.2 °F 57.2 °F 100% 30.15 in 4.0 mi West 10.4 mph - N/A   Clear
8:35 AM 59.0 °F 57.2 °F 94% 30.14 in 5.0 mi West 10.4 mph - N/A   Clear
8:55 AM 59.0 °F 59.0 °F 100% 30.15 in 7.0 mi West 10.4 mph - N/A   Clear
9:15 AM 59.0 °F 57.2 °F 94% 30.14 in 7.0 mi West 8.1 mph - N/A   Scattered Clouds
9:35 AM 60.8 °F 59.0 °F 94% 30.16 in 10.0 mi West 5.8 mph - N/A   Clear
9:55 AM 62.6 °F 60.8 °F 94% 30.16 in 10.0 mi NW 4.6 mph - N/A   Clear
10:15 AM 64.4 °F 59.0 °F 83% 30.17 in 10.0 mi WNW 4.6 mph - N/A   Clear
10:35 AM 64.4 °F 59.0 °F 83% 30.17 in 10.0 mi WNW 6.9 mph - N/A   Clear
10:55 AM 64.4 °F 59.0 °F 83% 30.17 in 10.0 mi West 6.9 mph - N/A   Scattered Clouds
11:15 AM 64.4 °F 57.2 °F 77% 30.18 in 10.0 mi WNW 6.9 mph - N/A   Scattered Clouds
11:35 AM 66.2 °F 59.0 °F 78% 30.19 in 10.0 mi WNW 8.1 mph - N/A   Mostly Cloudy
11:55 AM 66.2 °F 57.2 °F 73% 30.19 in 10.0 mi West 10.4 mph - N/A   Scattered Clouds
12:15 PM 66.2 °F 57.2 °F 73% 30.19 in 10.0 mi WSW 9.2 mph - N/A   Mostly Cloudy
12:35 PM 68.0 °F 57.2 °F 68% 30.19 in 10.0 mi WSW 8.1 mph - N/A   Mostly Cloudy
12:55 PM 69.8 °F 57.2 °F 64% 30.19 in 10.0 mi West 8.1 mph - N/A   Scattered Clouds
1:15 PM 69.8 °F 57.2 °F 64% 30.19 in 10.0 mi WSW 9.2 mph - N/A   Scattered Clouds
1:35 PM 69.8 °F 57.2 °F 64% 30.19 in 10.0 mi West 8.1 mph - N/A   Scattered Clouds
1:55 PM 69.8 °F 57.2 °F 64% 30.19 in 10.0 mi West 6.9 mph - N/A   Scattered Clouds
2:15 PM 68.0 °F 55.4 °F 64% 30.19 in 10.0 mi West 6.9 mph - N/A   Mostly Cloudy
2:35 PM 71.6 °F 55.4 °F 57% 30.19 in 10.0 mi West 13.8 mph 17.3 mph N/A   Mostly Cloudy
2:55 PM 71.6 °F 55.4 °F 57% 30.18 in 10.0 mi West 11.5 mph 17.3 mph N/A   Scattered Clouds
3:15 PM 71.6 °F 55.4 °F 57% 30.18 in 10.0 mi WNW 8.1 mph - N/A   Scattered Clouds
3:35 PM 71.6 °F 55.4 °F 57% 30.18 in 10.0 mi WSW 12.7 mph 16.1 mph N/A   Scattered Clouds
3:55 PM 71.6 °F 55.4 °F 57% 30.18 in 10.0 mi West 10.4 mph 16.1 mph N/A   Scattered Clouds
4:15 PM 69.8 °F 55.4 °F 60% 30.18 in 10.0 mi NW 11.5 mph 18.4 mph N/A   Clear
4:35 PM 71.6 °F 55.4 °F 57% 30.18 in 10.0 mi West 12.7 mph 17.3 mph N/A   Scattered Clouds
4:55 PM 71.6 °F 55.4 °F 57% 30.18 in 10.0 mi West 10.4 mph 17.3 mph N/A   Clear
5:15 PM 71.6 °F 55.4 °F 57% 30.18 in 10.0 mi West 12.7 mph 16.1 mph N/A   Clear
5:35 PM 71.6 °F 55.4 °F 57% 30.18 in 10.0 mi West 11.5 mph - N/A   Clear
5:55 PM 69.8 °F 55.4 °F 60% 30.18 in 10.0 mi West 12.7 mph - N/A   Clear
6:15 PM 69.8 °F 55.4 °F 60% 30.18 in 10.0 mi West 9.2 mph - N/A   Clear
6:35 PM 69.8 °F 55.4 °F 60% 30.18 in 10.0 mi West 10.4 mph - N/A   Clear
6:55 PM 69.8 °F 55.4 °F 60% 30.17 in 10.0 mi West 11.5 mph - N/A   Clear
7:15 PM 66.2 °F 55.4 °F 68% 30.17 in 10.0 mi West 9.2 mph - N/A   Clear
7:35 PM 66.2 °F 55.4 °F 68% 30.18 in 10.0 mi West 9.2 mph - N/A   Clear
7:55 PM 66.2 °F 55.4 °F 68% 30.18 in 10.0 mi West 10.4 mph - N/A   Clear
8:15 PM 64.4 °F 55.4 °F 73% 30.18 in 10.0 mi West 9.2 mph - N/A   Clear
8:35 PM 64.4 °F 55.4 °F 73% 30.19 in 10.0 mi West 13.8 mph 18.4 mph N/A   Clear
8:55 PM 64.4 °F 55.4 °F 73% 30.18 in 10.0 mi West 10.4 mph - N/A   Clear
9:15 PM 64.4 °F 55.4 °F 73% 30.18 in 10.0 mi West 10.4 mph - N/A   Clear
9:35 PM 64.4 °F 55.4 °F 73% 30.19 in 10.0 mi WSW 10.4 mph - N/A   Clear
9:55 PM 62.6 °F 55.4 °F 77% 30.20 in 10.0 mi WSW 12.7 mph - N/A   Clear
10:15 PM 62.6 °F 55.4 °F 77% 30.20 in 10.0 mi WSW 13.8 mph - N/A   Clear
10:35 PM 62.6 °F 55.4 °F 77% 30.21 in 10.0 mi West 11.5 mph - N/A   Clear
10:55 PM 62.6 °F 55.4 °F 77% 30.21 in 10.0 mi West 15.0 mph - N/A   Clear
11:15 PM 62.6 °F 55.4 °F 77% 30.21 in 10.0 mi WSW 15.0 mph - N/A   Clear
11:35 PM 62.6 °F 55.4 °F 77% 30.20 in 10.0 mi West 12.7 mph - N/A   Clear
11:55 PM 62.6 °F 57.2 °F 82% 30.20 in 10.0 mi West 12.7 mph - N/A   Clear